Location: RyutenAO
(34.8939°N, 134.0022°E)
Time: 11:12:25
(UTC+09:00)

Oscar 19 - Pass Details

Date: 10 April 2023
Orbit: 773 x 788 km, 98.8° (Epoch: 29 May)

Event Time Altitude Azimuth Distance (km) Brightness Sun altitude
Rises 03:41:49 0° 20° (NNE) 3,274 14.6 -23.6°
Reaches altitude 10° 03:44:14 10° 26° (NNE) 2,345 13.8 -23.2°
Maximum altitude 03:49:12 47° 100° (E) 1,036 11.5 -22.3°
Drops below altitude 10° 03:54:10 10° 174° (S) 2,338 12.9 -21.4°
Enters shadow 03:54:26 - 175° (S) 2,441 13.0 -21.3°
